Regional Weather Roundup
Issued by NWS New Orleans/Baton Rouge, LA

Home | Current Version | Previous Version | Text Only | Print | Product List | Glossary On
Versions: 1 2 3 4 5 6 7 8 9 10 11 12 13 14 15 16 17 18 19 20 21 22 23 24 25 26 27 28 29 30 31 32 33 34 35 36 37 38 39 40 41 42 43 44 45 46 47 48 49 50
000
ASUS44 KLIX 070611
RWRLIX
NEW ORLEANS REGIONAL WEATHER ROUNDUP
NATIONAL WEATHER SERVICE NEW ORLEANS LA
100 AM CDT THU MAY 07 2015

NOTE: "FAIR" INDICATES FEW OR NO CLOUDS BELOW 12,000 FEET WITH NO
      SIGNIFICANT WEATHER AND/OR OBSTRUCTIONS TO VISIBILITY.
      SKY/WX - SKY CONDITION AND SIGNIFICANT WEATHER.
      TMP - AIR TEMPERATURE.     DP    - DEWPOINT TEMPERATURE.
      RH  - RELATIVE HUMIDITY.   PRES  - PRESSURE.
      HI  - HEAT INDEX.          WCI   - WIND CHILL INDEX.

*  THESE STATIONS ARE NOT NWS OR FAA STATIONS AND ARE NOT UNDER
   NWS QUALITY CONTROL.

LAZ038-040-048-061>063-065>067-069-070700-
SOUTHEAST LOUISIANA

CITY           SKY/WX    TMP DP  RH WIND       PRES   REMARKS
N.O. AUDUBON     N/A     73  71  92 MISG        N/A
6HR MIN TEMP:  72; 6HR MAX TEMP:  79;

N.O. INTL ARPT CLEAR     72  67  84 SE5       30.03S
6HR MIN TEMP:  72; 6HR MAX TEMP:  79;

N.O. LAKEFRONT CLEAR     73  68  84 SE5       30.04S
6HR MIN TEMP:  73; 6HR MAX TEMP:  79;

SLIDELL        CLEAR     67  66  97 CALM      30.04F
6HR MIN TEMP:  66; 6HR MAX TEMP:  77;

BATON ROUGE    CLEAR     69  67  93 SE6       30.02F
6HR MIN TEMP:  69; 6HR MAX TEMP:  79;

BOOTHVILLE     CLEAR     69  69 100 E5        30.04S
6HR MIN TEMP:  69; 6HR MAX TEMP:  76;

BELLE CHASSE   CLEAR     72  68  87 SE7       30.03S
6HR MIN TEMP:  72; 6HR MAX TEMP:  78;

BOGALUSA*        N/A     65  62  89 CALM      30.06F
6HR MIN TEMP:  65; 6HR MAX TEMP:  79;

GALLIANO*      CLEAR     75  71  86 CALM      30.03F
6HR MIN TEMP:  75; 6HR MAX TEMP:  80;

NEW ROADS*       N/A     70  69  95 E5        30.02S
6HR MIN TEMP:  70; 6HR MAX TEMP:  81;

GONZALES*        N/A     68  68 100 CALM      30.02S
6HR MIN TEMP:  68; 6HR MAX TEMP:  80;

HAMMOND*       CLEAR     70  66  88 CALM      30.05S
HOUMA*         CLEAR     73  71  93 SE6       30.03S
6HR MIN TEMP:  71; 6HR MAX TEMP:  79;

PORT FOURCHON* CLEAR     75  72  88 SE12      30.06S

$$

MSZ070-080>082-070700-
SOUTHERN MISSISSIPPI

CITY           SKY/WX    TMP DP  RH WIND       PRES   REMARKS
MCCOMB         PTCLDY    68  67  96 SE6       30.04F FOG
6HR MIN TEMP:  68; 6HR MAX TEMP:  79;

GULFPORT       CLEAR     69  66  90 CALM      30.04F
6HR MIN TEMP:  69; 6HR MAX TEMP:  76;

BILOXI         CLEAR     72  68  87 S2        30.04F
6HR MIN TEMP:  72; 6HR MAX TEMP:  76;

PASCAGOULA     CLEAR     61  60  97 CALM      30.06S
6HR MIN TEMP:  61; 6HR MAX TEMP:  76;


$$

COASTAL OBSERVATIONS
LAKE AND NEARSHORE STATIONS

STATION/POSITION TIME  TEMP    WIND        PRES    WAVE
                       AIR SEA DIR/SP/G            HT/PER
                 (UTC) (F)     (DEG/KT/KT) (MB)    (FT/S)
PASCAGOULA       0500   74     140/  5/  6 1017.1
WAVELAND YACHT   0500   75 75  150/  9/ 10 1017.6
GRAND ISLE       0500   76 78  140/  9/ 14 1016.9
SOUTHWEST PASS   0500   75 67  130/ 12/ 16 1017.3
NEW CANAL        0500   73 75   CALM  /  2 1017.5
SHELL BEACH      0500   74 78  140/  7/  9 1016.6

OFFSHORE STATIONS

STATION/POSITION TIME  TEMP    WIND        PRES    WAVE
                       AIR SEA DIR/SP/G            HT/PER
                 (UTC) (F)     (DEG/KT/KT) (MB)    (FT/S)
64 S DAUPHIN ISL 0550   74 75  140/ 12/ 14 1017.7    3/ 7

$$



USA.gov is the U.S. government's official web portal to all federal, state and local government web resources and services.